Hourly Data Report for June 29, 2021

CARIBOU POINT (AUT)
NOVA SCOTIA
Current Station Operator: ECCC - MSC

45°46'00.000" N
62°41'00.000" W
2.40 m
8200774
71415
WBK

Download Data

Hourly Data (June 2021)
Hourly Data Report for June 29, 2021
TIME
LST
Temp Definition
°C
Dew Point Definition
°C
Rel Hum Definition
%
Precip. Amount Definition
mm

Wind Dir Definition
10's deg

Wind Spd Definition
km/h
Visibility Definition
km
Stn Press Definition
kPa
Hmdx Definition


Wind Chill Definition


Weather Definition


00:00 16.3 15.2 93 0.0 13 6   101.76     LegendNANA
01:00 16.1 15.1 94 0.0 12 9   101.75     LegendNANA
02:00 15.7 14.9 95 0.0 9 8   101.75     LegendNANA
03:00 15.9 15.2 96 0.0 9 16   101.72     LegendNANA
04:00 15.8 15.1 96 0.0 14 9   101.72     LegendNANA
05:00 16.3 15.9 97 2.8 14 13   101.73     LegendNANA
06:00 17.0 16.6 98 1.8 15 14   101.75     LegendNANA
07:00 19.0 18.7 98 0.2 18 15   101.72     LegendNANA
08:00 19.8 19.0 96 0.2 19 15   101.72     LegendNANA
09:00 19.7 18.3 92 0.0 18 20   101.68     LegendNANA
10:00 20.8 18.6 87 0.0 19 22   101.64 27   LegendNANA
11:00 22.5 19.7 85 0.0 19 22   101.61 30   LegendNANA
12:00 23.9 20.1 80 0.0 20 12   101.58 32   LegendNANA
13:00 23.8 20.3 81 0.0 18 20   101.50 32   LegendNANA
14:00 24.5 20.7 79 0.0 19 17   101.45 33   LegendNANA
15:00 23.1 20.0 83 0.0 18 23   101.40 31   LegendNANA
16:00 22.0 20.1 89 0.0 17 21   101.38 30   LegendNANA
17:00 20.3 19.7 97 13.6 15 14   101.41 28   LegendNANA
18:00 20.0 19.2 95 8.8 15 14   101.40 27   LegendNANA
19:00 21.4 20.7 96 0.0 20 6   101.40 30   LegendNANA
20:00 20.8 19.8 94 0.0 20 8   101.39 28   LegendNANA
21:00 20.6 19.8 95 0.0 22 8   101.44 28   LegendNANA
22:00 20.0 19.3 96 0.0 21 8   101.42 27   LegendNANA
23:00 20.1 19.5 96 0.0 21 8   101.42 27   LegendNANA

Notes on Data Quality.

Legend

  • E = Estimated
  • M = Missing
  • NA = Not Available*
  • [empty] = Indicates an unobserved value
Date modified: